Погода в Стоктоне

США     37°55′16″N   121°15′41″W
темп.,
°C
ветер,
м/с
пор.,
м/с
влажн.,
%
обл.,
%
осадки,
мм/ч
давл.,
гПа
погр.,
м
16 октября, сб
сб1623:00+18ссв11275 0.0 101813
02:00+16ссв11305 0.0 101813
05:00+15с11325 0.0 101813
08:00+14ссз11355 0.0 101731
11:00+22зсз00215 0.0 1017402
14:00+27юв11144 0.0 1014611
17:00+28юз11120 0.0 1012675
20:00+22зсз22185 0.0 101338
17 октября, вс
вс1723:00+19св2222100 0.0 101342
02:00+17в112429 0.0 101223
05:00+15юв11240 0.0 101116
08:00+15юв2325100 0.0 101295
11:00+21юз121774 0.0 1012572
14:00+26ююв26124 0.0 10091463
17:00+23зюз8112412 0.0 10081687
20:00+15з61067100 0.0 10111064
18 октября, пн
пн1823:00+14зюз48648 0.1 1013748
02:00+12юз48734 0.0 1014622
05:00+11ююз47721 0.0 1015537
08:00+11ю24750 0.0 1017251
11:00+15юз235177 0.1 10181480
14:00+18ссз33371 0.0 10161719
17:00+18сз33340 0.0 10151515
20:00+14ссз26440 0.0 1015267
19 октября, вт
вт1923:00+12сз23515 0.0 1016113
02:00+11сз23615 0.0 101695
05:00+10ссз11620 0.0 101671
08:00+10всв11594 0.0 101770
11:00+16ю12380 0.0 1017619
14:00+21ю24245 0.0 10141392
17:00+22ююз1321100 0.0 10131662
20:00+15ссз2447100 0.0 1015118
20 октября, ср
ср2023:00+13ссв1151100 0.0 101561
02:00+13всв1148100 0.0 101754
05:00+14юв1242100 0.0 1017120
08:00+15ююв1241100 0.0 1018171
11:00+17юв1334100 0.0 1019421
14:00+20ссз112892 0.0 1019691
17:00+19ссз333254 0.0 1018395
20:00+16ссз4647100 0.0 1019273